| time (UTC) | temp F | wind direction | speed MPH | gust MPH | rain 1hr in | rain 24hr in | rain mn in | humidity % | barometer mb |
| 20260902031353 | 88 | 207 | 6.0 | 15.0 | 0.00 | 0.00 | 0.00 | 14 | 1008.6 |
| 20260902031034 | 88 | 280 | 6.0 | 15.0 | 0.00 | 0.00 | 0.00 | 15 | 1008.5 |
| 20260902030716 | 89 | 249 | 7.0 | 15.0 | 0.00 | 0.00 | 0.00 | 14 | 1008.5 |
| 20260902030358 | 88 | 261 | 6.0 | 15.0 | 0.00 | 0.00 | 0.00 | 14 | 1008.5 |
| 20260902030044 | 88 | 219 | 6.0 | 10.0 | 0.00 | 0.00 | 0.00 | 15 | 1008.4 |
| 20260902025725 | 89 | 257 | 6.0 | 10.0 | 0.00 | 0.00 | 0.00 | 14 | 1008.4 |
| 20260902025107 | 89 | 236 | 6.0 | 16.0 | 0.00 | 0.00 | 0.00 | 14 | 1008.3 |
| 20260902024451 | 89 | 149 | 7.0 | 16.0 | 0.00 | 0.00 | 0.00 | 14 | 1008.4 |
| 20260902024125 | 89 | 238 | 7.0 | 16.0 | 0.00 | 0.00 | 0.00 | 14 | 1008.4 |
| 20260902023758 | 89 | 214 | 7.0 | 16.0 | 0.00 | 0.00 | 0.00 | 14 | 1008.3 |
| 20260902023438 | 89 | 264 | 7.0 | 16.0 | 0.00 | 0.00 | 0.00 | 14 | 1008.4 |
| 20260902023117 | 89 | 242 | 6.0 | 14.0 | 0.00 | 0.00 | 0.00 | 14 | 1008.3 |
| 20260902022802 | 89 | 236 | 6.0 | 14.0 | 0.00 | 0.00 | 0.00 | 14 | 1008.3 |
| 20260902022444 | 90 | 263 | 6.0 | 14.0 | 0.00 | 0.00 | 0.00 | 14 | 1008.2 |
| 20260902022122 | 90 | 235 | 6.0 | 13.0 | 0.00 | 0.00 | 0.00 | 14 | 1008.2 |
| 20260902021758 | 90 | 251 | 6.0 | 13.0 | 0.00 | 0.00 | 0.00 | 14 | 1008.2 |
| 20260902021438 | 90 | 234 | 7.0 | 15.0 | 0.00 | 0.00 | 0.00 | 14 | 1008.3 |
| 20260902021117 | 90 | 239 | 8.0 | 15.0 | 0.00 | 0.00 | 0.00 | 14 | 1008.2 |
| 20260902020757 | 90 | 236 | 8.0 | 15.0 | 0.00 | 0.00 | 0.00 | 14 | 1008.2 |
| 20260902020440 | 90 | 254 | 7.0 | 16.0 | 0.00 | 0.00 | 0.00 | 14 | 1008.3 |
| 20260902020125 | 90 | 246 | 7.0 | 16.0 | 0.00 | 0.00 | 0.00 | 14 | 1008.3 |
| 20260902015808 | 90 | 211 | 7.0 | 16.0 | 0.00 | 0.00 | 0.00 | 13 | 1008.3 |
| 20260902015454 | 91 | 219 | 8.0 | 22.0 | 0.00 | 0.00 | 0.00 | 13 | 1008.4 |
| 20260902014839 | 91 | 227 | 9.0 | 22.0 | 0.00 | 0.00 | 0.00 | 13 | 1008.4 |
| 20260902014522 | 91 | 248 | 9.0 | 22.0 | 0.00 | 0.00 | 0.00 | 13 | 1008.6 |
| 20260902013858 | 91 | 252 | 10.0 | 22.0 | 0.00 | 0.00 | 0.00 | 13 | 1008.5 |
| 20260902013533 | 91 | 242 | 10.0 | 20.0 | 0.00 | 0.00 | 0.00 | 13 | 1008.6 |
| 20260902013210 | 92 | 227 | 9.0 | 18.0 | 0.00 | 0.00 | 0.00 | 13 | 1008.6 |
| 20260902012546 | 92 | 262 | 8.0 | 22.0 | 0.00 | 0.00 | 0.00 | 13 | 1008.6 |
| 20260902012232 | 92 | 232 | 9.0 | 22.0 | 0.00 | 0.00 | 0.00 | 13 | 1008.8 |
| 20260902011613 | 92 | 214 | 12.0 | 23.0 | 0.00 | 0.00 | 0.00 | 13 | 1008.9 |
| 20260902011248 | 92 | 163 | 13.0 | 23.0 | 0.00 | 0.00 | 0.00 | 13 | 1009.0 |
| 20260902010933 | 92 | 246 | 13.0 | 23.0 | 0.00 | 0.00 | 0.00 | 12 | 1009.0 |
| 20260902010614 | 92 | 225 | 13.0 | 24.0 | 0.00 | 0.00 | 0.00 | 13 | 1008.9 |
| 20260902010255 | 93 | 259 | 13.0 | 24.0 | 0.00 | 0.00 | 0.00 | 12 | 1009.0 |
| 20260902005933 | 93 | 244 | 13.0 | 24.0 | 0.00 | 0.00 | 0.00 | 12 | 1009.0 |
| 20260902005318 | 93 | 235 | 12.0 | 24.0 | 0.00 | 0.00 | 0.00 | 12 | 1009.0 |
| 20260902005003 | 93 | 233 | 11.0 | 24.0 | 0.00 | 0.00 | 0.00 | 12 | 1009.2 |
| 20260902004639 | 93 | 227 | 10.0 | 24.0 | 0.00 | 0.00 | 0.00 | 12 | 1009.1 |
| 20260902004321 | 93 | 251 | 11.0 | 24.0 | 0.00 | 0.00 | 0.00 | 12 | 1009.1 |
| 20260902004006 | 93 | 186 | 12.0 | 24.0 | 0.00 | 0.00 | 0.00 | 12 | 1009.2 |
| 20260902003645 | 93 | 226 | 13.0 | 26.0 | 0.00 | 0.00 | 0.00 | 12 | 1009.3 |
| 20260902003324 | 93 | 233 | 13.0 | 26.0 | 0.00 | 0.00 | 0.00 | 12 | 1009.3 |
| 20260902002958 | 93 | 269 | 13.0 | 26.0 | 0.00 | 0.00 | 0.00 | 12 | 1009.4 |
| 20260902002631 | 94 | 251 | 13.0 | 26.0 | 0.00 | 0.00 | 0.00 | 11 | 1009.5 |
| 20260902002008 | 94 | 225 | 13.0 | 26.0 | 0.00 | 0.00 | 0.00 | 11 | 1009.3 |
| 20260902001644 | 94 | 267 | 13.0 | 24.0 | 0.00 | 0.00 | 0.00 | 11 | 1009.3 |
| 20260902001325 | 94 | 238 | 13.0 | 24.0 | 0.00 | 0.00 | 0.00 | 10 | 1009.4 |
| 20260902001008 | 94 | 234 | 12.0 | 23.0 | 0.00 | 0.00 | 0.00 | 11 | 1009.4 |
| 20260902000653 | 94 | 261 | 12.0 | 23.0 | 0.00 | 0.00 | 0.00 | 11 | 1009.5 |
| 20260902000329 | 94 | 225 | 11.0 | 23.0 | 0.00 | 0.00 | 0.00 | 10 | 1009.4 |
| 20260902000006 | 94 | 259 | 12.0 | 26.0 | 0.00 | 0.00 | 0.00 | 10 | 1009.4 |
| 20260901235646 | 95 | 225 | 12.0 | 26.0 | 0.00 | 0.00 | 0.00 | 10 | 1009.4 |
| 20260901235325 | 95 | 213 | 14.0 | 26.0 | 0.00 | 0.00 | 0.00 | 9 | 1009.6 |
| 20260901235005 | 95 | 192 | 13.0 | 26.0 | 0.00 | 0.00 | 0.00 | 9 | 1009.6 |
| 20260901234641 | 95 | 240 | 12.0 | 26.0 | 0.00 | 0.00 | 0.00 | 9 | 1009.4 |
| 20260901234317 | 95 | 196 | 9.0 | 26.0 | 0.00 | 0.00 | 0.00 | 9 | 1009.5 |
| 20260901233959 | 96 | 227 | 8.0 | 20.0 | 0.00 | 0.00 | 0.00 | 9 | 1009.5 |
| 20260901233636 | 96 | 210 | 9.0 | 20.0 | 0.00 | 0.00 | 0.00 | 9 | 1009.5 |
| 20260901233310 | 96 | 155 | 8.0 | 20.0 | 0.00 | 0.00 | 0.00 | 9 | 1009.5 |
| 20260901232951 | 96 | 220 | 9.0 | 24.0 | 0.00 | 0.00 | 0.00 | 10 | 1009.5 |
| 20260901232627 | 96 | 243 | 10.0 | 24.0 | 0.00 | 0.00 | 0.00 | 9 | 1009.6 |
| 20260901232310 | 96 | 247 | 11.0 | 24.0 | 0.00 | 0.00 | 0.00 | 10 | 1009.6 |
| 20260901231654 | 95 | 201 | 12.0 | 25.0 | 0.00 | 0.00 | 0.00 | 9 | 1009.6 |
| 20260901231329 | 96 | 252 | 12.0 | 25.0 | 0.00 | 0.00 | 0.00 | 10 | 1009.6 |
| 20260901230714 | 96 | 240 | 10.0 | 26.0 | 0.00 | 0.00 | 0.00 | 9 | 1009.6 |
| 20260901230345 | 96 | 206 | 11.0 | 26.0 | 0.00 | 0.00 | 0.00 | 9 | 1009.6 |
| 20260901230028 | 96 | 213 | 13.0 | 26.0 | 0.00 | 0.00 | 0.00 | 9 | 1009.7 |
| 20260901225709 | 96 | 229 | 13.0 | 26.0 | 0.00 | 0.00 | 0.00 | 9 | 1009.7 |
| 20260901225349 | 96 | 273 | 12.0 | 26.0 | 0.00 | 0.00 | 0.00 | 9 | 1009.6 |
| 20260901225032 | 96 | 209 | 11.0 | 21.0 | 0.00 | 0.00 | 0.00 | 8 | 1009.7 |
| 20260901224710 | 97 | 244 | 10.0 | 21.0 | 0.00 | 0.00 | 0.00 | 9 | 1009.8 |
| 20260901224050 | 97 | 222 | 8.0 | 21.0 | 0.00 | 0.00 | 0.00 | 9 | 1009.8 |
| 20260901223729 | 97 | 227 | 7.0 | 20.0 | 0.00 | 0.00 | 0.00 | 9 | 1009.8 |
| 20260901223416 | 97 | 196 | 8.0 | 20.0 | 0.00 | 0.00 | 0.00 | 10 | 1009.8 |
| 20260901223058 | 97 | 204 | 9.0 | 20.0 | 0.00 | 0.00 | 0.00 | 10 | 1009.9 |
| 20260901222432 | 97 | 211 | 8.0 | 21.0 | 0.00 | 0.00 | 0.00 | 10 | 1010.0 |
| 20260901222117 | 97 | 225 | 8.0 | 21.0 | 0.00 | 0.00 | 0.00 | 10 | 1009.9 |
| 20260901221758 | 98 | 242 | 8.0 | 21.0 | 0.00 | 0.00 | 0.00 | 10 | 1009.9 |
| 20260901221437 | 97 | 240 | 9.0 | 21.0 | 0.00 | 0.00 | 0.00 | 10 | 1010.0 |
| 20260901221114 | 97 | 242 | 8.0 | 21.0 | 0.00 | 0.00 | 0.00 | 10 | 1010.1 |
| 20260901220157 | 97 | 178 | 8.0 | 22.0 | 0.00 | 0.00 | 0.00 | 11 | 1009.9 |
| 20260901215841 | 97 | 226 | 8.0 | 22.0 | 0.00 | 0.00 | 0.00 | 11 | 1010.1 |
| 20260901215522 | 97 | 240 | 9.0 | 22.0 | 0.00 | 0.00 | 0.00 | 11 | 1010.1 |
| 20260901215205 | 97 | 181 | 10.0 | 22.0 | 0.00 | 0.00 | 0.00 | 11 | 1010.2 |
| 20260901214841 | 96 | 208 | 10.0 | 22.0 | 0.00 | 0.00 | 0.00 | 12 | 1010.1 |
| 20260901213922 | 97 | 172 | 8.0 | 22.0 | 0.00 | 0.00 | 0.00 | 11 | 1010.3 |
| 20260901213254 | 97 | 247 | 9.0 | 22.0 | 0.00 | 0.00 | 0.00 | 11 | 1010.4 |
| 20260901212637 | 97 | 152 | 10.0 | 22.0 | 0.00 | 0.00 | 0.00 | 11 | 1010.4 |
| 20260901212311 | 97 | 246 | 7.0 | 22.0 | 0.00 | 0.00 | 0.00 | 11 | 1010.4 |
| 20260901211944 | 97 | 257 | 6.0 | 19.0 | 0.00 | 0.00 | 0.00 | 11 | 1010.4 |
| 20260901211624 | 97 | 257 | 4.0 | 23.0 | 0.00 | 0.00 | 0.00 | 11 | 1010.6 |
| 20260901211310 | 97 | 244 | 5.0 | 23.0 | 0.00 | 0.00 | 0.00 | 11 | 1010.5 |
| 20260901210945 | 97 | 215 | 7.0 | 23.0 | 0.00 | 0.00 | 0.00 | 11 | 1010.6 |
| 20260901210624 | 97 | 171 | 9.0 | 23.0 | 0.00 | 0.00 | 0.00 | 12 | 1010.6 |
| 20260901210309 | 97 | 153 | 11.0 | 23.0 | 0.00 | 0.00 | 0.00 | 11 | 1010.6 |
| 20260901205653 | 96 | 254 | 10.0 | 19.0 | 0.00 | 0.00 | 0.00 | 11 | 1010.6 |
| 20260901205328 | 96 | 252 | 9.0 | 17.0 | 0.00 | 0.00 | 0.00 | 11 | 1010.7 |
| 20260901205013 | 96 | 215 | 7.0 | 17.0 | 0.00 | 0.00 | 0.00 | 11 | 1010.8 |
| 20260901204659 | 96 | 162 | 6.0 | 14.0 | 0.00 | 0.00 | 0.00 | 13 | 1010.8 |
| 20260901204344 | 96 | 224 | 6.0 | 19.0 | 0.00 | 0.00 | 0.00 | 13 | 1010.8 |
| 20260901204029 | 96 | 235 | 7.0 | 19.0 | 0.00 | 0.00 | 0.00 | 12 | 1010.9 |
| 20260901203705 | 95 | 188 | 9.0 | 19.0 | 0.00 | 0.00 | 0.00 | 12 | 1010.9 |
| 20260901203347 | 95 | 259 | 9.0 | 19.0 | 0.00 | 0.00 | 0.00 | 12 | 1011.0 |
| 20260901203028 | 95 | 200 | 9.0 | 19.0 | 0.00 | 0.00 | 0.00 | 12 | 1011.2 |
| 20260901202711 | 95 | 212 | 9.0 | 19.0 | 0.00 | 0.00 | 0.00 | 13 | 1011.1 |
| 20260901202355 | 96 | 244 | 9.0 | 19.0 | 0.00 | 0.00 | 0.00 | 12 | 1011.2 |
| 20260901202030 | 95 | 198 | 8.0 | 19.0 | 0.00 | 0.00 | 0.00 | 12 | 1011.2 |
| 20260901201715 | 95 | 167 | 8.0 | 19.0 | 0.00 | 0.00 | 0.00 | 13 | 1011.3 |
| 20260901201355 | 95 | 212 | 8.0 | 21.0 | 0.00 | 0.00 | 0.00 | 13 | 1011.3 |
| 20260901200429 | 95 | 234 | 10.0 | 21.0 | 0.00 | 0.00 | 0.00 | 13 | 1011.4 |
| 20260901195808 | 95 | 227 | 10.0 | 21.0 | 0.00 | 0.00 | 0.00 | 13 | 1011.5 |
| 20260901195443 | 95 | 259 | 10.0 | 20.0 | 0.00 | 0.00 | 0.00 | 12 | 1011.5 |
| 20260901195129 | 95 | 176 | 9.0 | 19.0 | 0.00 | 0.00 | 0.00 | 13 | 1011.5 |
| 20260901194812 | 95 | 248 | 9.0 | 19.0 | 0.00 | 0.00 | 0.00 | 13 | 1011.6 |
| 20260901194454 | 95 | 252 | 8.0 | 19.0 | 0.00 | 0.00 | 0.00 | 13 | 1011.6 |
| 20260901194131 | 95 | 182 | 8.0 | 19.0 | 0.00 | 0.00 | 0.00 | 12 | 1011.6 |
| 20260901193805 | 95 | 193 | 7.0 | 17.0 | 0.00 | 0.00 | 0.00 | 12 | 1011.7 |
| 20260901193444 | 95 | 188 | 7.0 | 17.0 | 0.00 | 0.00 | 0.00 | 14 | 1011.6 |
| 20260901192828 | 94 | 237 | 7.0 | 21.0 | 0.00 | 0.00 | 0.00 | 14 | 1011.8 |
| 20260901192501 | 94 | 181 | 8.0 | 21.0 | 0.00 | 0.00 | 0.00 | 15 | 1011.8 |
| 20260901192142 | 95 | 227 | 9.0 | 21.0 | 0.00 | 0.00 | 0.00 | 16 | 1012.0 |
| 20260901191821 | 95 | 168 | 9.0 | 21.0 | 0.00 | 0.00 | 0.00 | 17 | 1012.0 |
| 20260901191506 | 94 | 134 | 8.0 | 21.0 | 0.00 | 0.00 | 0.00 | 16 | 1011.9 |
| 20260901191140 | 94 | 171 | 8.0 | 21.0 | 0.00 | 0.00 | 0.00 | 16 | 1012.0 |
| 20260901190817 | 94 | 157 | 8.0 | 26.0 | 0.00 | 0.00 | 0.00 | 14 | 1012.0 |
| 20260901190500 | 94 | 244 | 8.0 | 26.0 | 0.00 | 0.00 | 0.00 | 14 | 1012.0 |
| 20260901190143 | 94 | 156 | 9.0 | 26.0 | 0.00 | 0.00 | 0.00 | 18 | 1012.0 |
| 20260901185825 | 93 | 198 | 11.0 | 26.0 | 0.00 | 0.00 | 0.00 | 20 | 1012.0 |
| 20260901185503 | 93 | 140 | 11.0 | 26.0 | 0.00 | 0.00 | 0.00 | 20 | 1012.2 |
| 20260901185138 | 93 | 137 | 10.0 | 26.0 | 0.00 | 0.00 | 0.00 | 20 | 1012.1 |
| 20260901184823 | 93 | 149 | 9.0 | 23.0 | 0.00 | 0.00 | 0.00 | 19 | 1012.1 |
| 20260901184207 | 92 | 155 | 10.0 | 23.0 | 0.00 | 0.00 | 0.00 | 21 | 1012.1 |
| 20260901183846 | 93 | 148 | 10.0 | 26.0 | 0.00 | 0.00 | 0.00 | 21 | 1012.2 |
| 20260901183524 | 93 | 199 | 11.0 | 26.0 | 0.00 | 0.00 | 0.00 | 20 | 1012.3 |
| 20260901183200 | 93 | 143 | 11.0 | 26.0 | 0.00 | 0.00 | 0.00 | 18 | 1012.4 |
| 20260901182842 | 93 | 153 | 12.0 | 26.0 | 0.00 | 0.00 | 0.00 | 20 | 1012.2 |
| 20260901182526 | 93 | 136 | 11.0 | 26.0 | 0.00 | 0.00 | 0.00 | 19 | 1012.4 |
| 20260901182206 | 93 | 155 | 10.0 | 26.0 | 0.00 | 0.00 | 0.00 | 19 | 1012.4 |
| 20260901181243 | 92 | 137 | 9.0 | 25.0 | 0.00 | 0.00 | 0.00 | 20 | 1012.3 |
| 20260901180927 | 92 | 212 | 8.0 | 25.0 | 0.00 | 0.00 | 0.00 | 19 | 1012.4 |
| 20260901180307 | 92 | 111 | 10.0 | 25.0 | 0.00 | 0.00 | 0.00 | 22 | 1012.4 |
| 20260901175641 | 92 | 178 | 9.0 | 23.0 | 0.00 | 0.00 | 0.00 | 19 | 1012.6 |
| 20260901175324 | 91 | 205 | 10.0 | 20.0 | 0.00 | 0.00 | 0.00 | 19 | 1012.5 |
| 20260901174700 | 91 | 147 | 10.0 | 25.0 | 0.00 | 0.00 | 0.00 | 21 | 1012.5 |
| 20260901174334 | 91 | 134 | 10.0 | 25.0 | 0.00 | 0.00 | 0.00 | 22 | 1012.5 |
| 20260901173714 | 90 | 148 | 12.0 | 25.0 | 0.00 | 0.00 | 0.00 | 22 | 1012.5 |
| 20260901173350 | 91 | 200 | 13.0 | 25.0 | 0.00 | 0.00 | 0.00 | 24 | 1012.6 |
| 20260901173034 | 90 | 148 | 13.0 | 25.0 | 0.00 | 0.00 | 0.00 | 24 | 1012.5 |
| 20260901172709 | 90 | 150 | 12.0 | 24.0 | 0.00 | 0.00 | 0.00 | 24 | 1012.5 |
| 20260901172353 | 90 | 144 | 11.0 | 24.0 | 0.00 | 0.00 | 0.00 | 24 | 1012.5 |
| 20260901172030 | 90 | 144 | 11.0 | 25.0 | 0.00 | 0.00 | 0.00 | 24 | 1012.6 |
| 20260901171711 | 90 | 161 | 11.0 | 25.0 | 0.00 | 0.00 | 0.00 | 24 | 1012.5 |
| 20260901171352 | 90 | 165 | 11.0 | 25.0 | 0.00 | 0.00 | 0.00 | 24 | 1012.6 |
| 20260901171033 | 90 | 167 | 12.0 | 25.0 | 0.00 | 0.00 | 0.00 | 23 | 1012.4 |
| 20260901170716 | 89 | 189 | 12.0 | 25.0 | 0.00 | 0.00 | 0.00 | 24 | 1012.5 |
| 20260901170400 | 89 | 161 | 11.0 | 25.0 | 0.00 | 0.00 | 0.00 | 24 | 1012.5 |
| 20260901170036 | 89 | 129 | 10.0 | 21.0 | 0.00 | 0.00 | 0.00 | 22 | 1012.6 |
| 20260901165715 | 89 | 136 | 10.0 | 21.0 | 0.00 | 0.00 | 0.00 | 18 | 1012.6 |
| 20260901165356 | 89 | 171 | 10.0 | 17.0 | 0.00 | 0.00 | 0.00 | 16 | 1012.5 |
| 20260901165033 | 89 | 113 | 9.0 | 17.0 | 0.00 | 0.00 | 0.00 | 15 | 1012.5 |
| 20260901164715 | 88 | 111 | 9.0 | 15.0 | 0.00 | 0.00 | 0.00 | 15 | 1012.6 |
| 20260901164351 | 89 | 142 | 8.0 | 16.0 | 0.00 | 0.00 | 0.00 | 16 | 1012.6 |
| 20260901164033 | 89 | 142 | 7.0 | 16.0 | 0.00 | 0.00 | 0.00 | 14 | 1012.6 |
| 20260901163415 | 89 | 136 | 7.0 | 16.0 | 0.00 | 0.00 | 0.00 | 14 | 1012.5 |
| 20260901163059 | 88 | 204 | 8.0 | 16.0 | 0.00 | 0.00 | 0.00 | 14 | 1012.6 |
| 20260901162743 | 88 | 138 | 8.0 | 16.0 | 0.00 | 0.00 | 0.00 | 14 | 1012.7 |
| 20260901161524 | 87 | 167 | 8.0 | 15.0 | 0.00 | 0.00 | 0.00 | 15 | 1012.6 |
| 20260901161206 | 87 | 125 | 9.0 | 15.0 | 0.00 | 0.00 | 0.00 | 15 | 1012.6 |
| 20260901160844 | 87 | 150 | 9.0 | 15.0 | 0.00 | 0.00 | 0.00 | 15 | 1012.6 |
| 20260901160517 | 87 | 142 | 6.0 | 13.0 | 0.00 | 0.00 | 0.00 | 15 | 1012.6 |
| 20260901160202 | 87 | 155 | 6.0 | 13.0 | 0.00 | 0.00 | 0.00 | 16 | 1012.5 |
| 20260901155539 | 87 | 196 | 5.0 | 12.0 | 0.00 | 0.00 | 0.00 | 16 | 1012.6 |
| 20260901155218 | 87 | 171 | 4.0 | 11.0 | 0.00 | 0.00 | 0.00 | 16 | 1012.5 |
| 20260901154852 | 87 | 147 | 4.0 | 9.0 | 0.00 | 0.00 | 0.00 | 16 | 1012.6 |
| 20260901154527 | 86 | 167 | 4.0 | 9.0 | 0.00 | 0.00 | 0.00 | 16 | 1012.6 |
| 20260901154202 | 86 | 161 | 3.0 | 9.0 | 0.00 | 0.00 | 0.00 | 16 | 1012.5 |
| 20260901153839 | 85 | 197 | 3.0 | 9.0 | 0.00 | 0.00 | 0.00 | 17 | 1012.6 |
| 20260901153513 | 85 | 146 | 3.0 | 9.0 | 0.00 | 0.00 | 0.00 | 16 | 1012.5 |
| 20260901153150 | 85 | 194 | 2.0 | 9.0 | 0.00 | 0.00 | 0.00 | 16 | 1012.6 |
| 20260901152831 | 84 | 167 | 1.0 | 9.0 | 0.00 | 0.00 | 0.00 | 17 | 1012.6 |
| 20260901152506 | 84 | 170 | 0.0 | 4.0 | 0.00 | 0.00 | 0.00 | 18 | 1012.6 |
| 20260901152150 | 83 | 145 | 0.0 | 3.0 | 0.00 | 0.00 | 0.00 | 17 | 1012.5 |
| 20260901151833 | 83 | 221 | 0.0 | 3.0 | 0.00 | 0.00 | 0.00 | 17 | 1012.5 |
| 20260901151508 | 83 | 220 | 1.0 | 4.0 | 0.00 | 0.00 | 0.00 | 17 | 1012.5 |
| 20260901145943 | 82 | 218 | 1.0 | 4.0 | 0.00 | 0.00 | 0.00 | 17 | 1012.5 |
| 20260901145620 | 82 | 242 | 1.0 | 3.0 | 0.00 | 0.00 | 0.00 | 16 | 1012.5 |
| 20260901144958 | 81 | 155 | 0.0 | 5.0 | 0.00 | 0.00 | 0.00 | 16 | 1012.4 |
| 20260901144643 | 81 | 223 | 1.0 | 5.0 | 0.00 | 0.00 | 0.00 | 16 | 1012.3 |
| 20260901144018 | 80 | 246 | 2.0 | 5.0 | 0.00 | 0.00 | 0.00 | 17 | 1012.4 |
| 20260901143701 | 80 | 242 | 2.0 | 5.0 | 0.00 | 0.00 | 0.00 | 17 | 1012.3 |
| 20260901143341 | 79 | 212 | 2.0 | 5.0 | 0.00 | 0.00 | 0.00 | 17 | 1012.4 |
| 20260901143026 | 78 | 243 | 1.0 | 6.0 | 0.00 | 0.00 | 0.00 | 18 | 1012.4 |
| 20260901142701 | 78 | 211 | 1.0 | 6.0 | 0.00 | 0.00 | 0.00 | 18 | 1012.4 |
| 20260901142341 | 77 | 217 | 1.0 | 6.0 | 0.00 | 0.00 | 0.00 | 19 | 1012.4 |
| 20260901141424 | 76 | 169 | 2.0 | 6.0 | 0.00 | 0.00 | 0.00 | 20 | 1012.4 |
| 20260901141058 | 76 | 159 | 1.0 | 6.0 | 0.00 | 0.00 | 0.00 | 22 | 1012.3 |
| 20260901140740 | 76 | 155 | 1.0 | 6.0 | 0.00 | 0.00 | 0.00 | 21 | 1012.2 |
| 20260901140119 | 75 | 161 | 3.0 | 8.0 | 0.00 | 0.00 | 0.00 | 21 | 1012.1 |
| 20260901135757 | 75 | 146 | 3.0 | 8.0 | 0.00 | 0.00 | 0.00 | 21 | 1012.1 |
| 20260901135139 | 75 | 178 | 2.0 | 8.0 | 0.00 | 0.00 | 0.00 | 22 | 1012.1 |
| 20260901134822 | 74 | 166 | 2.0 | 8.0 | 0.00 | 0.00 | 0.00 | 22 | 1012.0 |
| 20260901134457 | 74 | 188 | 2.0 | 5.0 | 0.00 | 0.00 | 0.00 | 22 | 1011.9 |
| 20260901134140 | 74 | 196 | 2.0 | 5.0 | 0.00 | 0.00 | 0.00 | 22 | 1012.0 |
| 20260901133826 | 73 | 194 | 1.0 | 4.0 | 0.00 | 0.00 | 0.00 | 25 | 1012.0 |
| 20260901133508 | 73 | 193 | 1.0 | 4.0 | 0.00 | 0.00 | 0.00 | 27 | 1012.0 |
| 20260901133144 | 73 | 153 | 1.0 | 1.0 | 0.00 | 0.00 | 0.00 | 26 | 1012.0 |
| 20260901132517 | 73 | 178 | 0.0 | 1.0 | 0.00 | 0.00 | 0.00 | 27 | 1012.0 |
| 20260901132151 | 73 | 241 | 0.0 | 1.0 | 0.00 | 0.00 | 0.00 | 26 | 1012.0 |
| 20260901131534 | 74 | 241 | 0.0 | 2.0 | 0.00 | 0.00 | 0.00 | 26 | 1012.0 |
| 20260901131214 | 74 | 242 | 1.0 | 2.0 | 0.00 | 0.00 | 0.00 | 24 | 1011.9 |
| 20260901130552 | 74 | 243 | 1.0 | 4.0 | 0.00 | 0.00 | 0.00 | 23 | 1011.8 |
| 20260901130237 | 75 | 246 | 1.0 | 4.0 | 0.00 | 0.00 | 0.00 | 24 | 1011.8 |
| 20260901125916 | 75 | 247 | 1.0 | 4.0 | 0.00 | 0.00 | 0.00 | 23 | 1011.8 |
| 20260901125255 | 76 | 182 | 1.0 | 8.0 | 0.00 | 0.00 | 0.00 | 23 | 1011.6 |
| 20260901124932 | 76 | 186 | 2.0 | 8.0 | 0.00 | 0.00 | 0.00 | 22 | 1011.6 |
| 20260901124610 | 77 | 172 | 3.0 | 8.0 | 0.00 | 0.00 | 0.00 | 21 | 1011.6 |
| 20260901124254 | 77 | 209 | 3.0 | 8.0 | 0.00 | 0.00 | 0.00 | 21 | 1011.5 |
| 20260901123936 | 77 | 176 | 4.0 | 8.0 | 0.00 | 0.00 | 0.00 | 21 | 1011.5 |
| 20260901123620 | 77 | 189 | 4.0 | 8.0 | 0.00 | 0.00 | 0.00 | 19 | 1011.6 |
| 20260901123257 | 77 | 161 | 5.0 | 8.0 | 0.00 | 0.00 | 0.00 | 19 | 1011.7 |
| 20260901122935 | 77 | 148 | 4.0 | 8.0 | 0.00 | 0.00 | 0.00 | 18 | 1011.7 |
| 20260901122613 | 77 | 165 | 3.0 | 7.0 | 0.00 | 0.00 | 0.00 | 18 | 1011.7 |
| 20260901121652 | 77 | 176 | 3.0 | 6.0 | 0.00 | 0.00 | 0.00 | 18 | 1011.5 |
| 20260901121333 | 77 | 167 | 3.0 | 6.0 | 0.00 | 0.00 | 0.00 | 19 | 1011.4 |
| 20260901121015 | 77 | 163 | 3.0 | 6.0 | 0.00 | 0.00 | 0.00 | 20 | 1011.4 |
| 20260901120659 | 77 | 175 | 2.0 | 6.0 | 0.00 | 0.00 | 0.00 | 20 | 1011.4 |
| 20260901120340 | 77 | 171 | 2.0 | 6.0 | 0.00 | 0.00 | 0.00 | 21 | 1011.4 |
| 20260901120020 | 77 | 169 | 2.0 | 6.0 | 0.00 | 0.00 | 0.00 | 21 | 1011.3 |
| 20260901115354 | 78 | 202 | 3.0 | 6.0 | 0.00 | 0.00 | 0.00 | 21 | 1011.3 |
| 20260901115034 | 78 | 206 | 3.0 | 7.0 | 0.00 | 0.00 | 0.00 | 21 | 1011.4 |
| 20260901114717 | 78 | 200 | 3.0 | 7.0 | 0.00 | 0.00 | 0.00 | 21 | 1011.3 |
| 20260901114352 | 79 | 203 | 3.0 | 7.0 | 0.00 | 0.00 | 0.00 | 20 | 1011.3 |
| 20260901114033 | 79 | 213 | 3.0 | 9.0 | 0.00 | 0.00 | 0.00 | 20 | 1011.3 |
| 20260901113712 | 79 | 240 | 4.0 | 9.0 | 0.00 | 0.00 | 0.00 | 19 | 1011.3 |
| 20260901113049 | 79 | 198 | 4.0 | 13.0 | 0.00 | 0.00 | 0.00 | 20 | 1011.3 |
| 20260901112134 | 80 | 195 | 5.0 | 13.0 | 0.00 | 0.00 | 0.00 | 19 | 1011.3 |
| 20260901111520 | 80 | 195 | 5.0 | 13.0 | 0.00 | 0.00 | 0.00 | 18 | 1011.2 |
| 20260901111159 | 80 | 164 | 5.0 | 11.0 | 0.00 | 0.00 | 0.00 | 16 | 1011.2 |
| 20260901110832 | 80 | 156 | 5.0 | 12.0 | 0.00 | 0.00 | 0.00 | 16 | 1011.3 |
| 20260901110512 | 80 | 158 | 6.0 | 12.0 | 0.00 | 0.00 | 0.00 | 15 | 1011.2 |
| 20260901110157 | 80 | 146 | 5.0 | 12.0 | 0.00 | 0.00 | 0.00 | 15 | 1011.2 |
| 20260901105838 | 80 | 142 | 5.0 | 12.0 | 0.00 | 0.00 | 0.00 | 15 | 1011.3 |
| 20260901105520 | 80 | 177 | 5.0 | 12.0 | 0.00 | 0.00 | 0.00 | 16 | 1011.2 |
| 20260901105203 | 80 | 151 | 5.0 | 12.0 | 0.00 | 0.00 | 0.00 | 16 | 1011.2 |
| 20260901104546 | 80 | 163 | 4.0 | 10.0 | 0.00 | 0.00 | 0.00 | 16 | 1011.2 |
| 20260901104224 | 81 | 162 | 4.0 | 10.0 | 0.00 | 0.00 | 0.00 | 16 | 1011.2 |
| 20260901103258 | 81 | 198 | 4.0 | 10.0 | 0.00 | 0.00 | 0.00 | 16 | 1011.1 |
| 20260901102936 | 81 | 213 | 4.0 | 10.0 | 0.00 | 0.00 | 0.00 | 17 | 1011.1 |
| 20260901102610 | 81 | 171 | 5.0 | 10.0 | 0.00 | 0.00 | 0.00 | 18 | 1011.1 |
| 20260901102252 | 81 | 195 | 5.0 | 9.0 | 0.00 | 0.00 | 0.00 | 18 | 1011.1 |
| 20260901101934 | 81 | 207 | 4.0 | 14.0 | 0.00 | 0.00 | 0.00 | 19 | 1011.1 |
| 20260901101317 | 81 | 207 | 4.0 | 14.0 | 0.00 | 0.00 | 0.00 | 20 | 1011.0 |
| 20260901101001 | 81 | 211 | 5.0 | 14.0 | 0.00 | 0.00 | 0.00 | 20 | 1011.0 |
| 20260901100642 | 81 | 229 | 5.0 | 14.0 | 0.00 | 0.00 | 0.00 | 21 | 1011.0 |
| 20260901100317 | 81 | 222 | 5.0 | 14.0 | 0.00 | 0.00 | 0.00 | 21 | 1011.0 |
| 20260901095950 | 81 | 213 | 4.0 | 10.0 | 0.00 | 0.00 | 0.00 | 22 | 1011.0 |
| 20260901095628 | 81 | 200 | 4.0 | 9.0 | 0.00 | 0.00 | 0.00 | 23 | 1011.0 |
| 20260901095309 | 80 | 206 | 3.0 | 8.0 | 0.00 | 0.00 | 0.00 | 23 | 1011.1 |
| 20260901094944 | 80 | 220 | 3.0 | 7.0 | 0.00 | 0.00 | 0.00 | 23 | 1011.0 |
| 20260901094627 | 79 | 238 | 2.0 | 5.0 | 0.00 | 0.00 | 0.00 | 24 | 1011.0 |
| 20260901094011 | 78 | 191 | 0.0 | 5.0 | 0.00 | 0.00 | 0.00 | 25 | 1011.0 |
| 20260901093652 | 79 | 181 | 0.0 | 3.0 | 0.00 | 0.00 | 0.00 | 25 | 1010.9 |
| 20260901093034 | 79 | 157 | 1.0 | 9.0 | 0.00 | 0.00 | 0.00 | 25 | 1010.9 |
| 20260901092419 | 80 | 163 | 2.0 | 9.0 | 0.00 | 0.00 | 0.00 | 24 | 1010.9 |
| 20260901092100 | 81 | 157 | 3.0 | 9.0 | 0.00 | 0.00 | 0.00 | 23 | 1010.9 |
| 20260901091737 | 81 | 181 | 4.0 | 9.0 | 0.00 | 0.00 | 0.00 | 23 | 1010.9 |
| 20260901091117 | 81 | 156 | 4.0 | 8.0 | 0.00 | 0.00 | 0.00 | 22 | 1010.9 |
| 20260901090752 | 81 | 134 | 3.0 | 7.0 | 0.00 | 0.00 | 0.00 | 22 | 1010.9 |
| 20260901090435 | 81 | 156 | 3.0 | 6.0 | 0.00 | 0.00 | 0.00 | 21 | 1011.0 |
| 20260901090115 | 81 | 171 | 3.0 | 6.0 | 0.00 | 0.00 | 0.00 | 21 | 1010.8 |
| 20260901085757 | 81 | 155 | 2.0 | 6.0 | 0.00 | 0.00 | 0.00 | 21 | 1010.8 |
| 20260901085441 | 81 | 155 | 2.0 | 4.0 | 0.00 | 0.00 | 0.00 | 21 | 1010.8 |
| 20260901085121 | 81 | 157 | 2.0 | 6.0 | 0.00 | 0.00 | 0.00 | 21 | 1010.8 |
| 20260901084801 | 81 | 183 | 1.0 | 6.0 | 0.00 | 0.00 | 0.00 | 21 | 1010.8 |
| 20260901083837 | 81 | 164 | 2.0 | 7.0 | 0.00 | 0.00 | 0.00 | 21 | 1010.8 |
| 20260901083520 | 81 | 162 | 2.0 | 7.0 | 0.00 | 0.00 | 0.00 | 20 | 1010.8 |
| 20260901083203 | 81 | 191 | 2.0 | 7.0 | 0.00 | 0.00 | 0.00 | 20 | 1010.7 |
| 20260901082537 | 81 | 198 | 3.0 | 7.0 | 0.00 | 0.00 | 0.00 | 20 | 1010.8 |
| 20260901082217 | 81 | 184 | 4.0 | 7.0 | 0.00 | 0.00 | 0.00 | 20 | 1010.7 |
| 20260901081559 | 81 | 153 | 3.0 | 6.0 | 0.00 | 0.00 | 0.00 | 21 | 1010.8 |
| 20260901081238 | 80 | 188 | 2.0 | 6.0 | 0.00 | 0.00 | 0.00 | 21 | 1010.8 |
| 20260901080920 | 80 | 150 | 1.0 | 5.0 | 0.00 | 0.00 | 0.00 | 22 | 1010.8 |
| 20260901080303 | 80 | 178 | 1.0 | 4.0 | 0.00 | 0.00 | 0.00 | 22 | 1010.7 |
| 20260901075946 | 80 | 169 | 1.0 | 4.0 | 0.00 | 0.00 | 0.00 | 22 | 1010.7 |
| 20260901075624 | 81 | 160 | 1.0 | 4.0 | 0.00 | 0.00 | 0.00 | 21 | 1010.6 |
| 20260901074710 | 82 | 165 | 1.0 | 3.0 | 0.00 | 0.00 | 0.00 | 19 | 1010.6 |
| 20260901074349 | 82 | 162 | 1.0 | 3.0 | 0.00 | 0.00 | 0.00 | 19 | 1010.6 |
| 20260901074034 | 82 | 197 | 1.0 | 5.0 | 0.00 | 0.00 | 0.00 | 19 | 1010.6 |
| 20260901073719 | 82 | 193 | 1.0 | 5.0 | 0.00 | 0.00 | 0.00 | 18 | 1010.6 |
| 20260901073104 | 83 | 223 | 1.0 | 5.0 | 0.00 | 0.00 | 0.00 | 19 | 1010.4 |
| 20260901072744 | 83 | 208 | 1.0 | 5.0 | 0.00 | 0.00 | 0.00 | 18 | 1010.6 |
| 20260901072418 | 83 | 162 | 1.0 | 5.0 | 0.00 | 0.00 | 0.00 | 18 | 1010.5 |
| 20260901072054 | 83 | 164 | 1.0 | 4.0 | 0.00 | 0.00 | 0.00 | 18 | 1010.5 |
| 20260901071727 | 84 | 185 | 1.0 | 4.0 | 0.00 | 0.00 | 0.00 | 18 | 1010.4 |
| 20260901071412 | 84 | 213 | 2.0 | 4.0 | 0.00 | 0.00 | 0.00 | 18 | 1010.5 |
| 20260901071053 | 84 | 186 | 2.0 | 5.0 | 0.00 | 0.00 | 0.00 | 17 | 1010.4 |
| 20260901070732 | 84 | 155 | 2.0 | 5.0 | 0.00 | 0.00 | 0.00 | 17 | 1010.4 |
| 20260901070406 | 84 | 194 | 2.0 | 5.0 | 0.00 | 0.00 | 0.00 | 17 | 1010.2 |
| 20260901065746 | 84 | 232 | 2.0 | 5.0 | 0.00 | 0.00 | 0.00 | 17 | 1010.3 |
| 20260901065428 | 84 | 189 | 2.0 | 5.0 | 0.00 | 0.00 | 0.00 | 17 | 1010.3 |
| 20260901065104 | 85 | 178 | 3.0 | 9.0 | 0.00 | 0.00 | 0.00 | 16 | 1010.2 |
| 20260901064744 | 85 | 134 | 3.0 | 9.0 | 0.00 | 0.00 | 0.00 | 16 | 1010.2 |
| 20260901064428 | 85 | 174 | 3.0 | 9.0 | 0.00 | 0.00 | 0.00 | 16 | 1010.1 |
| 20260901063502 | 86 | 212 | 4.0 | 9.0 | 0.00 | 0.00 | 0.00 | 15 | 1010.1 |
| 20260901062239 | 87 | 209 | 6.0 | 17.0 | 0.00 | 0.00 | 0.00 | 14 | 1010.0 |
| 20260901061613 | 87 | 238 | 7.0 | 17.0 | 0.00 | 0.00 | 0.00 | 15 | 1009.8 |
| 20260901061248 | 87 | 227 | 7.0 | 17.0 | 0.00 | 0.00 | 0.00 | 15 | 1009.8 |
| 20260901060932 | 87 | 191 | 8.0 | 14.0 | 0.00 | 0.00 | 0.00 | 15 | 1009.8 |
| 20260901060608 | 87 | 231 | 8.0 | 14.0 | 0.00 | 0.00 | 0.00 | 15 | 1009.7 |
| 20260901060250 | 87 | 236 | 8.0 | 14.0 | 0.00 | 0.00 | 0.00 | 16 | 1009.7 |
| 20260901055930 | 87 | 247 | 7.0 | 17.0 | 0.00 | 0.00 | 0.00 | 16 | 1009.8 |
| 20260901055607 | 87 | 210 | 6.0 | 17.0 | 0.00 | 0.00 | 0.00 | 18 | 1009.7 |
| 20260901055241 | 87 | 178 | 6.0 | 17.0 | 0.00 | 0.00 | 0.00 | 21 | 1009.7 |
| 20260901054919 | 87 | 206 | 6.0 | 17.0 | 0.00 | 0.00 | 0.00 | 24 | 1009.6 |
| 20260901054553 | 87 | 209 | 7.0 | 17.0 | 0.00 | 0.00 | 0.00 | 26 | 1009.6 |
| 20260901054228 | 87 | 217 | 6.0 | 17.0 | 0.00 | 0.00 | 0.00 | 28 | 1009.5 |
| 20260901053910 | 87 | 169 | 6.0 | 15.0 | 0.00 | 0.00 | 0.00 | 30 | 1009.4 |
| 20260901053546 | 88 | 175 | 6.0 | 13.0 | 0.00 | 0.00 | 0.00 | 31 | 1009.5 |
| 20260901053232 | 88 | 180 | 7.0 | 15.0 | 0.00 | 0.00 | 0.00 | 31 | 1009.5 |
| 20260901052915 | 88 | 174 | 7.0 | 15.0 | 0.00 | 0.00 | 0.00 | 30 | 1009.5 |
| 20260901052552 | 88 | 182 | 7.0 | 15.0 | 0.00 | 0.00 | 0.00 | 31 | 1009.5 |
| 20260901052227 | 88 | 165 | 7.0 | 17.0 | 0.00 | 0.00 | 0.00 | 33 | 1009.3 |
| 20260901051908 | 88 | 160 | 9.0 | 17.0 | 0.00 | 0.00 | 0.00 | 33 | 1009.3 |
| 20260901051553 | 88 | 167 | 8.0 | 17.0 | 0.00 | 0.00 | 0.00 | 33 | 1009.4 |
| 20260901051237 | 88 | 156 | 9.0 | 20.0 | 0.00 | 0.00 | 0.00 | 33 | 1009.4 |
| 20260901050620 | 88 | 178 | 8.0 | 20.0 | 0.00 | 0.00 | 0.00 | 33 | 1009.4 |
| 20260901050304 | 88 | 169 | 8.0 | 21.0 | 0.00 | 0.00 | 0.00 | 33 | 1009.4 |
| 20260901045941 | 88 | 211 | 10.0 | 21.0 | 0.00 | 0.00 | 0.00 | 33 | 1009.4 |
| 20260901045619 | 88 | 190 | 12.0 | 21.0 | 0.00 | 0.00 | 0.00 | 33 | 1009.3 |
| 20260901045254 | 88 | 163 | 12.0 | 28.0 | 0.00 | 0.00 | 0.00 | 33 | 1009.3 |
| 20260901044931 | 89 | 163 | 14.0 | 28.0 | 0.00 | 0.00 | 0.00 | 33 | 1009.3 |
| 20260901044616 | 89 | 155 | 14.0 | 28.0 | 0.00 | 0.00 | 0.00 | 33 | 1009.3 |
| 20260901044253 | 89 | 157 | 15.0 | 30.0 | 0.00 | 0.00 | 0.00 | 33 | 1009.2 |
| 20260901043938 | 89 | 178 | 14.0 | 30.0 | 0.00 | 0.00 | 0.00 | 33 | 1009.2 |
| 20260901043616 | 89 | 164 | 15.0 | 30.0 | 0.00 | 0.00 | 0.00 | 33 | 1009.1 |
| 20260901043257 | 89 | 147 | 14.0 | 30.0 | 0.00 | 0.00 | 0.00 | 33 | 1009.1 |
| 20260901042936 | 89 | 138 | 13.0 | 30.0 | 0.00 | 0.00 | 0.00 | 33 | 1009.1 |
| 20260901042620 | 89 | 164 | 11.0 | 30.0 | 0.00 | 0.00 | 0.00 | 33 | 1009.0 |
| 20260901041658 | 89 | 178 | 11.0 | 26.0 | 0.00 | 0.00 | 0.00 | 34 | 1008.9 |
| 20260901041342 | 89 | 153 | 11.0 | 26.0 | 0.00 | 0.00 | 0.00 | 35 | 1008.8 |
| 20260901041027 | 89 | 143 | 12.0 | 26.0 | 0.00 | 0.00 | 0.00 | 35 | 1008.9 |
| 20260901040712 | 89 | 105 | 12.0 | 26.0 | 0.00 | 0.00 | 0.00 | 35 | 1008.8 |
| 20260901040356 | 90 | 180 | 12.0 | 26.0 | 0.00 | 0.00 | 0.00 | 35 | 1008.9 |
| 20260901040036 | 90 | 162 | 11.0 | 26.0 | 0.00 | 0.00 | 0.00 | 36 | 1008.8 |
| 20260901035406 | 90 | 148 | 12.0 | 25.0 | 0.00 | 0.00 | 0.00 | 36 | 1008.7 |
| 20260901035040 | 90 | 147 | 11.0 | 23.0 | 0.00 | 0.00 | 0.00 | 35 | 1008.6 |
| 20260901034719 | 91 | 163 | 8.0 | 23.0 | 0.00 | 0.00 | 0.00 | 33 | 1008.7 |
| 20260901034357 | 91 | 153 | 5.0 | 23.0 | 0.00 | 0.00 | 0.00 | 29 | 1008.6 |
| 20260901034039 | 90 | 150 | 2.0 | 7.0 | 0.00 | 0.00 | 0.00 | 20 | 1008.6 |
| 20260901033722 | 90 | 116 | 2.0 | 4.0 | 0.00 | 0.00 | 0.00 | 20 | 1008.4 |
| 20260901033407 | 90 | 148 | 1.0 | 4.0 | 0.00 | 0.00 | 0.00 | 20 | 1008.4 |
| 20260901032743 | 91 | 196 | 1.0 | 4.0 | 0.00 | 0.00 | 0.00 | 19 | 1008.3 |
| 20260901032428 | 91 | 203 | 1.0 | 4.0 | 0.00 | 0.00 | 0.00 | 19 | 1008.2 |
| 20260901032104 | 91 | 228 | 1.0 | 5.0 | 0.00 | 0.00 | 0.00 | 19 | 1008.2 |
| 20260901031743 | 91 | 194 | 1.0 | 5.0 | 0.00 | 0.00 | 0.00 | 19 | 1008.1 |